Philip, SD

6:55 AM MDT on August 26, 2016 (GMT -0600)
Philip

Weather History for KPHP - October, 2014

Change the Weather History Date:

Saturday, October 18, 2014

  Actual Average Record
Temperature  
Mean Temperature 49 °F 48 °F  
Max Temperature 74 °F 62 °F 88 °F (2015)
Min Temperature 24 °F 33 °F 15 °F (1960)
Degree Days  
Heating Degree Days 16 17  
Month to date heating degree days 234 249  
Since 1 July heating degree days 425 435  
Cooling Degree Days 0 0  
Month to date cooling degree days 0 0  
Year to date cooling degree days 649 814  
Moisture  
Dew Point 34 °F    
Average Humidity 63    
Maximum Humidity 92    
Minimum Humidity 33    
Precipitation  
Precipitation 0.00 in 0.05 in 0.30 in (1971)
Month to date precipitation 0.22 0.91  
Year to date precipitation 15.92 15.78  
Sea Level Pressure  
Sea Level Pressure 30.08 in    
Wind  
Wind Speed 6 mph (South)    
Max Wind Speed 23 mph    
Max Gust Speed 29 mph    
Visibility 9 miles    
Events      
T = Trace of Precipitation, MM = Missing Value Source: NWS Daily Summary

Daily Weather History Graph

Daily Weather History Graph

Search for Another Location

Airport or City:

Trip Planner

Search our weather history database for the weather conditions in past years. The results will help you decide how hot, cold, wet, or windy it might be!

Date:

Astronomy

Oct. 18, 2014 Rise Set
Actual Time 7:04 AM MDT 5:57 PM MDT
Civil Twilight 6:35 AM MDT 6:26 PM MDT
Nautical Twilight 6:02 AM MDT 7:00 PM MDT
Astronomical Twilight 5:28 AM MDT 7:33 PM MDT
Moon 1:55 AM MDT (10/18) 3:27 PM MDT (10/18)
Length of Visible Light 11h 51m
Length of Day
10h 52m
Waning Crescent, 24% of the Moon is Illuminated
Oct 18
Waning Crescent
Oct 23
New
Oct 30
First Quarter
Nov 6
Full
Nov 14
Last Quarter

Hourly Weather History & Observations

Time (MDT) Temp. Windchill Dew Point Humidity Pressure Visibility Wind Dir Wind Speed Gust Speed Precip Events Conditions
12:55 AM 30.9 °F - 28.0 °F 89% 30.25 in 10.0 mi Calm Calm - N/A   Clear
1:55 AM 28.9 °F - 27.0 °F 92% 30.25 in 10.0 mi Calm Calm - N/A   Clear
2:55 AM 28.9 °F - 26.1 °F 89% 30.23 in 10.0 mi Calm Calm - N/A   Clear
3:55 AM 27.0 °F - 24.1 °F 89% 30.23 in 10.0 mi Calm Calm - N/A   Clear
4:55 AM 26.1 °F - 23.0 °F 88% 30.22 in 10.0 mi Calm Calm - N/A   Clear
5:55 AM 25.0 °F 19.3 °F 21.9 °F 88% 30.23 in 8.0 mi WNW 4.6 mph - N/A   Clear
6:08 AM 25.0 °F - 23.0 °F 92% 30.18 in 3.0 mi Calm Calm - N/A   Scattered Clouds
6:11 AM 25.0 °F - 23.0 °F 92% 30.18 in 1.8 mi Calm Calm - N/A   Mostly Cloudy
6:20 AM 26.1 °F - 23.0 °F 88% 30.18 in 2.0 mi Calm Calm - N/A   Scattered Clouds
6:28 AM 26.1 °F - 24.1 °F 92% 30.18 in 10.0 mi Calm Calm - N/A   Scattered Clouds
6:55 AM 25.0 °F 20.7 °F 21.9 °F 88% 30.23 in 7.0 mi East 3.5 mph - N/A   Clear
7:55 AM 30.9 °F 27.5 °F 28.0 °F 89% 30.21 in 10.0 mi ENE 3.5 mph - N/A   Clear
8:55 AM 37.0 °F 33.3 °F 34.0 °F 89% 30.19 in 10.0 mi East 4.6 mph - N/A   Clear
9:55 AM 48.0 °F - 39.9 °F 74% 30.16 in 10.0 mi Variable 4.6 mph - N/A   Clear
10:55 AM 57.0 °F - 41.0 °F 55% 30.10 in 10.0 mi South 12.7 mph - N/A   Clear
11:55 AM 63.0 °F - 41.0 °F 45% 30.06 in 10.0 mi South 19.6 mph - N/A   Clear
12:55 PM 66.9 °F - 41.0 °F 39% 30.00 in 10.0 mi South 15.0 mph 26.5 mph N/A   Clear
1:55 PM 71.1 °F - 42.1 °F 35% 29.96 in 10.0 mi South 17.3 mph - N/A   Clear
2:55 PM 72.0 °F - 41.0 °F 33% 29.94 in 10.0 mi South 17.3 mph 25.3 mph N/A   Clear
3:55 PM 73.9 °F - 42.1 °F 32% 29.92 in 10.0 mi SSW 15.0 mph - N/A   Clear
4:55 PM 71.1 °F - 42.1 °F 35% 29.92 in 10.0 mi South 10.4 mph - N/A   Clear
5:55 PM 64.0 °F - 42.1 °F 45% 29.92 in 10.0 mi SSW 6.9 mph - N/A   Clear
6:55 PM 62.1 °F - 42.1 °F 48% 29.94 in 10.0 mi South 3.5 mph - N/A   Clear
7:55 PM 59.0 °F - 41.0 °F 51% 29.93 in 10.0 mi Variable 4.6 mph - N/A   Clear
8:55 PM 60.1 °F - 41.0 °F 49% 29.92 in 10.0 mi Calm Calm - N/A   Clear
9:55 PM 52.0 °F - 41.0 °F 66% 29.91 in 10.0 mi Calm Calm - N/A   Clear
10:55 PM 51.1 °F - 41.0 °F 68% 29.90 in 10.0 mi WNW 4.6 mph - N/A   Clear
11:55 PM 45.0 °F - 39.0 °F 80% 29.90 in 10.0 mi Calm Calm - N/A   Clear